Location: Ciula Mare
(45.6000°N, 22.8167°E)
Time: 04:14:55
(UTC+00:00)

H-2A R/B - Pass Details

Date: 03 February 2023
Orbit: 732 x 836 km, 98.2° (Epoch: 29 March)

Event Time Altitude Azimuth Distance (km) Brightness Sun altitude
Rises 15:56:28 0° 191° (S) 3,255 5.7 -3.9°
Reaches altitude 10° 15:58:57 10° 200° (SSW) 2,349 5.1 -4.3°
Maximum altitude 16:03:39 34° 265° (W) 1,307 4.1 -5.1°
Drops below altitude 10° 16:08:30 10° 329° (NNW) 2,423 4.8 -5.9°
Sets 16:11:06 0° 339° (NNW) 3,373 5.4 -6.4°
